Liberia, Costa Rica

6:26 PM CST on February 06, 2016 (GMT -0600)
Daniel Oduber Quiros International

Weather History for MRLB - May, 2014

Change the Weather History Date:

Thursday, May 15, 2014

  Actual Average Record
Temperature  
Mean Temperature 84 °F -  
Max Temperature 95 °F 88 °F 98 °F (1998)
Min Temperature 73 °F 76 °F 73 °F (2012)
Cooling Degree Days 19    
Growing Degree Days 34 (Base 50)    
Moisture  
Dew Point 67 °F    
Average Humidity 50    
Maximum Humidity 78    
Minimum Humidity 29    
Precipitation  
Precipitation 0.00 in - - ()
Sea Level Pressure  
Sea Level Pressure 29.84 in    
Wind  
Wind Speed 6 mph ()    
Max Wind Speed 13 mph    
Max Gust Speed -    
Visibility 8.0 miles    
Events      
Averages and records for this station are not official NWS values.
T = Trace of Precipitation, MM = Missing Value Source: Averaged Metar Reports

Daily Weather History Graph

Daily Weather History Graph

Search for Another Location

Airport or City:

Trip Planner

Search our weather history database for the weather conditions in past years. The results will help you decide how hot, cold, wet, or windy it might be!

Date:

Astronomy

May. 15, 2014 Rise Set
Actual Time 5:20 AM CST 5:56 PM CST
Civil Twilight 4:57 AM CST 6:19 PM CST
Nautical Twilight 4:31 AM CST 6:45 PM CST
Astronomical Twilight 4:05 AM CST 7:12 PM CST
Moon 7:04 PM CST (5/15) 6:04 AM CST (5/15)
Length of Visible Light 13h 21m
Length of Day
12h 36m
Full, 99% of the Moon is Illuminated
May 15
Full
May 21
Last Quarter
May 28
New
Jun 5
First Quarter
Jun 12
Full

Hourly Weather History & Observations

Time (CST) Temp. Heat Index Dew Point Humidity Pressure Visibility Wind Dir Wind Speed Gust Speed Precip Events Conditions
6:00 AM 75 °F - 68 °F 72% 29.86 in 12 mi East 3.5 mph - -   Overcast
6:00 AM 75.2 °F - 68.0 °F 78% 29.85 in - East 3.5 mph - N/A   Clear
7:00 AM 78.8 °F - 69.8 °F 74% 29.87 in - ENE 3.5 mph - N/A   Clear
8:00 AM 86.0 °F 89.4 °F 68.0 °F 55% 29.88 in - NW 3.5 mph - N/A   Clear
9:00 AM 87 °F - 67 °F 41% 29.88 in 12 mi SW 4.6 mph - -   Overcast
9:00 AM 87.8 °F 90.4 °F 66.2 °F 49% 29.87 in 6.2 mi SW 4.6 mph - N/A   Mostly Cloudy
10:00 AM 89.6 °F 92.2 °F 66.2 °F 46% 29.86 in 6.2 mi NE 8.1 mph - N/A   Mostly Cloudy
11:00 AM 91.4 °F 93.2 °F 64.4 °F 41% 29.85 in 6.2 mi East 11.5 mph - N/A   Mostly Cloudy
12:00 PM 93 °F - 65 °F 29% 29.84 in 12 mi East 11.5 mph - -   Overcast
12:00 PM 93.2 °F 94.9 °F 64.4 °F 38% 29.83 in 6.2 mi East 11.5 mph - N/A   Mostly Cloudy
2:00 PM 95.0 °F 99.5 °F 68.0 °F 41% 29.79 in 6.2 mi East 11.5 mph - N/A   Scattered Clouds
3:00 PM 92 °F - 65 °F 31% 29.81 in 12 mi ENE 11.5 mph - -   Overcast
3:00 PM 91.4 °F 94.0 °F 66.2 °F 43% 29.79 in 6.2 mi ENE 11.5 mph - N/A   Mostly Cloudy
4:00 PM 89.6 °F 93.4 °F 68.0 °F 49% 29.78 in 6.2 mi ENE 12.7 mph - N/A   Mostly Cloudy
5:00 PM 87.8 °F 90.4 °F 66.2 °F 49% 29.80 in 6.2 mi ENE 11.5 mph - N/A   Mostly Cloudy
6:00 PM 86 °F - 66 °F 42% 29.85 in 12 mi East 10.4 mph - -   Mostly Cloudy
6:00 PM 86.0 °F 88.2 °F 66.2 °F 51% 29.82 in 6.2 mi East 10.4 mph - N/A   Scattered Clouds
7:00 PM 84.2 °F 87.3 °F 68.0 °F 58% 29.84 in 6.2 mi East 12.7 mph - N/A   Scattered Clouds
8:00 PM 84.2 °F 87.3 °F 68.0 °F 58% 29.87 in 6.2 mi East 9.2 mph - N/A   Scattered Clouds